TimeMDT,TemperatureF,Dew PointF,Humidity,Sea Level PressureIn,VisibilityMPH,Wind Direction,Wind SpeedMPH,Gust SpeedMPH,PrecipitationIn,Events,Conditions,WindDirDegrees,DateUTC
12:55 AM,84.9,37.9,19,29.69,10.0,SSW,15.0,-,N/A,,Clear,200,2012-09-02 06:55:00
1:55 AM,87.1,43.0,21,29.70,10.0,SSW,18.4,-,N/A,,Clear,210,2012-09-02 07:55:00
2:55 AM,82.0,46.9,29,29.70,10.0,WSW,10.4,-,N/A,,Clear,240,2012-09-02 08:55:00
3:55 AM,79.0,51.1,38,29.69,10.0,WSW,10.4,-,0.00,Rain,Light Rain,250,2012-09-02 09:55:00
4:55 AM,82.0,46.9,29,29.69,10.0,SW,11.5,-,0.00,,Clear,230,2012-09-02 10:55:00
5:55 AM,80.1,46.0,30,29.73,10.0,West,11.5,-,N/A,,Clear,260,2012-09-02 11:55:00
6:55 AM,77.0,46.9,34,29.75,10.0,WSW,10.4,-,N/A,,Clear,250,2012-09-02 12:55:00
7:55 AM,75.9,48.9,38,29.78,10.0,West,17.3,20.7,N/A,,Clear,280,2012-09-02 13:55:00
8:55 AM,78.1,50.0,37,29.81,10.0,NW,16.1,-,N/A,,Clear,310,2012-09-02 14:55:00
9:55 AM,82.0,51.1,34,29.83,10.0,NNW,24.2,34.5,N/A,,Clear,330,2012-09-02 15:55:00
10:55 AM,86.0,48.9,28,29.84,10.0,NNW,21.9,33.4,N/A,,Clear,340,2012-09-02 16:55:00
11:55 AM,88.0,46.9,24,29.85,10.0,North,18.4,23.0,N/A,,Clear,360,2012-09-02 17:55:00
12:55 PM,91.0,46.9,22,29.84,10.0,NNW,15.0,-,N/A,,Clear,330,2012-09-02 18:55:00
1:55 PM,91.0,46.0,21,29.83,10.0,NNW,10.4,20.7,N/A,,Clear,340,2012-09-02 19:55:00
2:55 PM,91.0,46.9,22,29.82,10.0,Calm,Calm,-,N/A,,Clear,0,2012-09-02 20:55:00
3:55 PM,93.9,46.0,19,29.82,10.0,Variable,4.6,-,N/A,,Scattered Clouds,0,2012-09-02 21:55:00
4:55 PM,93.0,46.0,20,29.81,10.0,Variable,3.5,-,N/A,,Scattered Clouds,0,2012-09-02 22:55:00
5:55 PM,91.0,45.0,20,29.82,10.0,SW,5.8,-,N/A,,Scattered Clouds,220,2012-09-02 23:55:00
6:55 PM,87.1,46.9,25,29.83,10.0,Calm,Calm,-,N/A,,Clear,0,2012-09-03 00:55:00
7:55 PM,81.0,45.0,28,29.84,10.0,ENE,4.6,-,N/A,,Clear,60,2012-09-03 01:55:00
8:55 PM,75.9,45.0,33,29.86,10.0,ENE,4.6,-,N/A,,Clear,70,2012-09-03 02:55:00
9:55 PM,71.1,46.0,41,29.86,10.0,ENE,8.1,-,N/A,,Clear,70,2012-09-03 03:55:00
10:55 PM,66.9,46.0,47,29.86,10.0,East,6.9,-,N/A,,Clear,80,2012-09-03 04:55:00
11:55 PM,66.0,46.0,48,29.87,10.0,East,5.8,-,N/A,,Clear,90,2012-09-03 05:55:00